Overview Statistics Trail Chart Weather Telemetry Raw packets
 

This is the latest recevied weather packets stored in our database for station/object IW1RCO-13. If no packets are shown the sender has not sent any weather packets the latest 10 day(s).

<< 28 29 30 31 32 33 34 >>
Time Temp. Humidity Pressure Rain* Wind** Luminosity Snow
1788448772 30° C 54% 1019.3 hPa - - - -
1788448468 28.33° C 57% 1019.3 hPa - - - -
1788446371 29.44° C 56% 1019.5 hPa - - - -
1788446067 29.44° C 57% 1018.8 hPa - - - -
1788445771 30.56° C 55% 1019.5 hPa - - - -
1788445467 30° C 57% 1019.1 hPa - - - -
1788445170 29.44° C 58% 1018.8 hPa - - - -
1788444867 30° C 58% 1019.6 hPa - - - -
1788444570 30° C 57% 1019.4 hPa - - - -
1788444266 29.44° C 57% 1019.9 hPa - - - -
1788443970 29.44° C 57% 1019 hPa - - - -
1788443666 30.56° C 56% 1019.6 hPa - - - -
1788443450 28.89° C 59% 1019.5 hPa - - - -
1788443450 29.44° C 56% 1019.1 hPa - - - -
1788443450 29.44° C 59% 1019.8 hPa - - - -
1788443450 29.44° C 60% 1019.9 hPa - - - -
1788442169 29.44° C 58% 1019 hPa - - - -
1788441872 29.44° C 57% 1019.8 hPa - - - -
1788441569 29.44° C 58% 1019.9 hPa - - - -
1788440968 30.56° C 55% 1019.3 hPa - - - -
1788440672 30° C 57% 1019.9 hPa - - - -
1788440368 30° C 56% 1019.3 hPa - - - -
1788440071 29.44° C 57% 1019.4 hPa - - - -
1788439768 28.89° C 58% 1019.5 hPa - - - -
1788439474 30° C 58% 1019.8 hPa - - - -

* Rain since midnight (hover to see other rain measurements)
** Current wind speed in m/s (hover to see current wind gust speed)